033  
NZUS59 KLOT 221208  
HRRLOT  
 
CHICAGO AREA WEATHER ROUNDUP  
NATIONAL WEATHER SERVICE CHICAGO/ROMEOVILLE IL  
600 AM CST MON JAN 22 2018  
 
NOTE: "FAIR" INDICATES FEW OR NO CLOUDS BELOW 12,000 FEET WITH NO  
SIGNIFICANT WEATHER AND/OR OBSTRUCTIONS TO VISIBILITY.  
 
* THESE STATIONS ARE NOT UNDER NWS QUALITY CONTROL. THEY ALSO MAY NOT  
REPORT WEATHER SUCH AS PRECIPITATION OR FOG.  
 
ILZ005-006-012>014-019>023-221300-  
NORTHEAST ILLINOIS  
 
CITY SKY/WX TMP DP RH WIND PRES REMARKS  
OHARE TSTM 48 46 93 E10 29.64F FOG  
6HR MIN TEMP: 43; 6HR MAX TEMP: 48; 6HR PCP: 0.40;  
 
MIDWAY TSTM 47 47 100 NE5 29.65F FOG  
6HR MIN TEMP: 46; 6HR MAX TEMP: 49; 6HR PCP: 0.39;  
 
AURORA HVY RAIN 48 48 100 SE12 29.62R FOG  
6HR MIN TEMP: 44; 6HR MAX TEMP: 48; 6HR PCP: 0.52;  
 
LANSING* CLOUDY 48 48 100 SE7 29.64F  
JOLIET* TSTM 48 48 100 E6 29.64S  
WAUKEGAN RAIN 40 40 100 NE8 29.65F VSB 1  
6HR MIN TEMP: 37; 6HR MAX TEMP: 40; 6HR PCP: 0.33;  
 
DUPAGE AIRPORT HVY RAIN 48 48 100 S9 29.65R FOG  
6HR MIN TEMP: 45; 6HR MAX TEMP: 48; 6HR PCP: 0.49;  
 
WHEELING LGT RAIN 42 42 100 CALM 29.66F VSB 1  
6HR MIN TEMP: 39; 6HR MAX TEMP: 42; 6HR PCP: 0.36;  
 
KANKAKEE* LGT RAIN N/A N/A N/A S14G20 29.67R  
MORRIS* RAIN 48 48 99 SE12 29.60F  
LEWIS AIRPORT* TSTM 47 47 100 SE7 29.65S  
NORTHERLY ISL N/A 39 38 96 N5 N/A  

 
 
WIZ051-052-058>065-066-070>072-221300-  
SOUTHEAST WISCONSIN  
 
CITY SKY/WX TMP DP RH WIND PRES REMARKS  
MILWAUKEE DRZL/FOG 37 37 100 NE14 29.71F VSB 1/2  
6HR MIN TEMP: 36; 6HR MAX TEMP: 38; 6HR PCP: 0.04;  
 
KENOSHA* HVY RAIN 40 39 97 NE12 29.68F FOG  
RACINE* RAIN 38 38 100 NE8 29.72F FOG  
BURLINGTON LGT SNOW 37 36 96 NE8 29.68F  
WAUKESHA FOG 36 36 100 NE13 29.71F VSB 1  
WEST BEND DRIZZLE 36 36 100 NE15G22 29.73F  

 
 
INZ001>003-010>013-019-020-221300-  
NORTHWEST INDIANA  
 
CITY SKY/WX TMP DP RH WIND PRES REMARKS  
GARY* LGT RAIN 50 50 100 SE8 29.66F  
MICHIGAN CITY* NOT AVBL  
RENSSELAER* NOT AVBL  
VALPARAISO CLOUDY 48 47 96 SE7 29.68F  

 
 
LMZ740>746-221300-  
SOUTHERN LAKE MICHIGAN  
 
STATION/POSITION TIME SKY/WX TEMP WIND PRES VSBY  
AIR DIR/SP/G  
(UTC) (F) (DEG/KT/KT) (MB) (MI)  
HARRISON CRIB 1140 44 100/ 11/ 11 N/A  
BURNHAM HARBOR 1200 40 30/ 3/ 5 N/A  
CALUMET HARBOR 1142 43 90/ 5/ 9 1003.5F  
BURNS HARBOR 1130 51 150/ 9/ 20 1005.4F  
MICHIGAN CITY 1140 50 130/ 14/ 19 N/A  

 
 
ABBREVIATIONS USED IN REMARKS  
TC - TEMPERATURE IN CELSIUS  
WCI - WIND CHILL INDEX  
HX - HEAT INDEX  
VSB - VISIBILITY  

 
 
 
CLICK HERE TO GO TO PREVIOUS BULLETINS.

The Nexlab IL Page
The Nexlab IN Page Main Text Page